Location: Barcelona
(41.3829°N, 2.1774°E)
Time: 21:30:13
(UTC+00:00)

ISS - Pass Details

Date: 12 July 2025
Orbit: 413 x 417 km, 51.6° (Epoch: 13 July)

Event Time Altitude Azimuth Distance (km) Brightness Sun altitude
Rises 20:43:08 0° 269° (W) 2,345 0.8 -12.5°
Reaches altitude 10° 20:45:30 10° 285° (WNW) 1,486 0.0 -12.8°
Maximum altitude 20:48:14 23° 340° (NNW) 938 -1.1 -13.1°
Drops below altitude 10° 20:50:58 10° 35° (NE) 1,491 -0.8 -13.5°
Sets 20:53:22 0° 51° (NE) 2,357 0.0 -13.8°
